Regional Weather Roundup
Issued by NWS

Home | Current Version | Previous Version | Text Only | Print | Product List | Glossary Off
Versions: 1 2 3 4 5 6 7 8 9 10 11 12 13 14 15 16 17 18 19 20 21 22 23 24 25 26 27 28 29 30 31 32 33 34 35 36 37 38 39 40 41 42 43 44 45 46 47 48 49 50

000
ASUS45 KCYS 051110
RWRWY

WYOMING REGIONAL WEATHER ROUNDUP
NATIONAL WEATHER SERVICE CHEYENNE WY
500 AM MDT SUN JUL 05 2015

NOTE:  "FAIR" INDICATES FEW OR NO CLOUDS BELOW 12,000 FEET
WITH NO SIGNIFICANT WEATHER AND/OR OBSTRUCTIONS TO VISIBILITY.

WYZ001-051200-
YELLOWSTONE NATIONAL PARK

CITY           SKY/WX    TMP DP  RH WIND       PRES   REMARKS
LK YELLOWSTONE   N/A     46  39  76 NW3       30.16R
W YELLOWSTONE  NOT AVBL

$$
WYZ002>013-054>058-071-098>099-051200-
NORTHERN WYOMING

CITY           SKY/WX    TMP DP  RH WIND       PRES   REMARKS
JACKSON        FAIR      55  45  67 CALM      30.05S
CODY           FAIR      66  45  45 CALM      29.89R
GREYBULL       FAIR      68  49  50 SW5       29.78R
WORLAND        FAIR      65  50  58 S6        29.81R
SHERIDAN       FAIR      62  53  72 S3        29.76F
BUFFALO        FAIR      76  47  35 SW5       29.85S
GILLETTE       FAIR      69  56  62 S12       29.81S
HULETT         FAIR      70  54  56 SW3       29.83R
NEWCASTLE      FAIR      64  55  72 SE8       29.86R

$$
WYZ014>020-022>026-101>103-051200-
CENTRAL WYOMING

CITY           SKY/WX    TMP DP  RH WIND       PRES   REMARKS
BIG PINEY      CLOUDY    57  39  51 E6        30.12R
PINEDALE       FAIR      50  43  76 W5        30.13R
DUBOIS         FAIR      55  34  44 W10       30.08S
LANDER         FAIR      71  42  35 CALM      29.93S
RIVERTON       FAIR      65  44  46 W8        29.94R
CASPER         FAIR      74  46  36 SW10G21   29.91R
DOUGLAS        FAIR      58  53  84 SE7       29.90S

$$
WYZ021-027>030-104>119-051200-
SOUTHERN WYOMING

CITY           SKY/WX    TMP DP  RH WIND       PRES   REMARKS
EVANSTON       MOCLDY    64  49  57 SW13      30.16R
KEMMERER       FAIR      63  45  51 W7        30.15S
FORT BRIDGER   LGT RAIN  66  50  55 S8        30.18R
ROCK SPRINGS   FAIR      69  47  45 SW8       30.11R
DIXON          CLOUDY    68  49  50 SW10G20   30.17R
RAWLINS        FAIR      67  46  47 SW13G21   30.09R
SARATOGA       FAIR      59  45  58 S9        30.14R
LARAMIE        FAIR      54  49  83 SE8       30.13R
CHEYENNE       FAIR      67  48  50 W10       30.01S
TORRINGTON     FAIR      60  57  89 NE7       29.86S
PINE BLUFFS    FAIR      59  54  82 SW5       29.96S

$$



USA.gov is the U.S. government's official web portal to all federal, state and local government web resources and services.